Location: Arroyo de Valdeoliva
(40.1604°N, 4.9878°W)
Time: 13:36:57
(UTC+00:00)

Tiangong - Visible Passes

Search period start: 15 February 2026 00:00
Search period end: 25 February 2026 00:00
Orbit: 386 x 391 km, 41.5° (Epoch: 15 February)

Date Brightness Start Highest point End Pass type
(mag) Time Alt. Az. Time Alt. Az. Time Alt. Az.
15 Feb -2.1 18:30:58 10° W 18:34:09 76° N 18:37:02 12° ENE visible
15 Feb 0.4 20:08:01 10° WNW 20:09:20 23° WNW 20:09:20 23° WNW visible
16 Feb -2.1 19:09:34 10° W 19:12:44 67° N 19:13:46 38° ENE visible
17 Feb -1.2 19:48:04 10° WNW 19:50:30 48° W 19:50:30 48° W visible
18 Feb -2.2 18:49:34 10° WNW 18:52:45 79° N 18:54:55 19° E visible
18 Feb 1.1 20:26:38 10° W 20:27:13 14° W 20:27:13 14° W visible
19 Feb -1.6 19:27:59 10° W 19:31:05 51° SSW 19:31:41 43° SSE visible
20 Feb -2.0 18:29:22 10° WNW 18:32:33 76° SSW 18:35:43 10° ESE visible
20 Feb 0.4 20:06:48 10° WSW 20:08:29 18° SW 20:08:29 18° SW visible
21 Feb -0.5 19:07:49 10° W 19:10:41 30° SSW 19:13:03 13° SSE visible
22 Feb 0.9 19:47:53 10° SW 19:48:31 10° SW 19:49:08 10° SSW visible
23 Feb 0.5 18:47:47 10° WSW 18:50:02 18° SSW 18:52:16 10° SSE visible
